Home   Weather   Liverpool   Past weeks

Flag for United Kingdom Past Weather in Liverpool, England, United Kingdom — Yesterday and Last 2 Weeks

Now
70 °F

Passing clouds.


Feels Like: 70 °F
Forecast: 57 / 64 °F
Wind: 5 mph from North

Location: Liverpool Airport

Current Time: Sep 28, 2016 at 6:16:02 PM

Latest Report: Sep 28, 2016 at 5:20 PM


Visibility: N/A

Pressure: 30.01 "Hg

Humidity: 78%

Dew Point: 63 °F

Location of LiverpoolLocation

Past Weather in Liverpool — Graph

°F

Liverpool Temperature Yesterday

Maximum temperature yesterday: 64 °F (at 11:50 AM)
Minimum temperature yesterday: 55 °F (at 12:20 AM)
Average temperature yesterday: 59 °F

High & Low Weather Summary for the Past Weeks

 TemperatureHumidityPressure
High79 °F (Sep 14, 4:50 PM)100% (Sep 13, 6:20 PM)30.24 "Hg (Sep 13, 6:20 PM)
Low48 °F (Sep 18, 5:20 AM)52% (Sep 25, 3:20 PM)29.65 "Hg (Sep 25, 2:20 AM)
Average60 °F81%30.03 "Hg
* Reported Sep 13 4:20 PM — Sep 28 4:50 PM, Liverpool, Weather by CustomWeather, © 2016

Note: Actual official high and low records may vary slightly from our data, if they occured in-between our weather recording intervals... More about our weather records

Advertising

Liverpool Weather History for the Previous 24 Hours

Scroll right to see more
 ConditionsComfort  
Time TempWeatherWind HumidityBarometerVisibility
4:50 PM
Wed, Sep 28
70 °FPassing clouds.8 mph78%30.04 "HgN/A
4:20 PM70 °FPassing clouds.16 mph78%30.04 "HgN/A
3:50 PM70 °FScattered clouds.18 mph73%30.07 "HgN/A
3:20 PM68 °FScattered clouds.13 mph78%30.07 "HgN/A
2:50 PM70 °FPassing clouds.16 mph73%30.07 "HgN/A
2:20 PM70 °FScattered clouds.15 mph73%30.09 "HgN/A
1:50 PM68 °FPassing clouds.14 mph78%30.09 "HgN/A
1:20 PM70 °FScattered clouds.13 mph78%30.09 "HgN/A
12:50 PM68 °FScattered clouds.6 mph78%30.12 "HgN/A
12:20 PM66 °FScattered clouds.9 mph78%30.12 "HgN/A
11:50 AM64 °FPartly sunny.5 mph83%30.12 "HgN/A
11:20 AM63 °FPartly sunny.7 mph83%30.12 "HgN/A
10:50 AM61 °FScattered showers. Partly sunny.7 mph88%30.12 "HgN/A
10:20 AM61 °FScattered showers. Partly sunny.6 mph83%30.15 "HgN/A
9:50 AM61 °FScattered showers. Partly sunny.10 mph83%30.15 "HgN/A
9:20 AM59 °FPartly sunny.12 mph82%30.15 "HgN/A
8:50 AM59 °FPartly sunny.10 mph82%30.15 "HgN/A
8:20 AM61 °FPartly sunny.8 mph72%30.15 "HgN/A
7:50 AM59 °FPartly sunny.9 mph82%30.15 "HgN/A
7:20 AM59 °FPartly sunny.9 mph82%30.15 "HgN/A
6:50 AM59 °FPassing clouds.9 mph77%30.15 "HgN/A
6:20 AM61 °FClear.6 mph72%30.15 "Hg10 mi
5:50 AM59 °FClear.9 mph77%30.15 "Hg10 mi
5:20 AM59 °FClear.3 mph82%30.15 "Hg10 mi
4:50 AM59 °FClear.5 mph82%30.15 "Hg10 mi
4:20 AM59 °FClear.7 mph82%30.15 "Hg10 mi
3:50 AM59 °FPassing clouds.6 mph77%30.15 "HgN/A
3:20 AM61 °FPassing clouds.8 mph72%30.15 "HgN/A
2:50 AM59 °FClear.9 mph77%30.12 "Hg10 mi
2:20 AM59 °FClear.8 mph77%30.12 "Hg10 mi
1:50 AM59 °FClear.8 mph77%30.15 "Hg10 mi
1:20 AM59 °FClear.7 mph77%30.15 "Hg10 mi
12:50 AM57 °FClear.6 mph82%30.15 "Hg10 mi
12:20 AM59 °FClear.13 mph77%30.12 "Hg10 mi
11:50 PM
Tue, Sep 27
59 °FClear.12 mph77%30.15 "Hg10 mi
11:20 PM57 °FClear.10 mph82%30.15 "Hg10 mi
10:50 PM57 °FClear.12 mph88%30.15 "Hg10 mi
10:20 PM59 °FClear.10 mph77%30.15 "Hg10 mi
9:50 PM59 °FClear.10 mph77%30.15 "Hg10 mi
9:20 PM59 °FClear.12 mph77%30.15 "Hg10 mi
8:50 PM59 °FPassing clouds.9 mph77%30.15 "HgN/A
8:20 PM59 °FClear.8 mph77%30.15 "Hg10 mi
7:50 PM59 °FPassing clouds.6 mph82%30.15 "HgN/A
7:20 PM59 °FScattered showers. Passing clouds.3 mph82%30.15 "HgN/A
6:50 PM59 °FScattered showers. Passing clouds.6 mph82%30.15 "HgN/A
6:20 PM61 °FScattered showers. Passing clouds.8 mph72%30.15 "HgN/A
Weather by CustomWeather, © 2016

See weather overviewHow to use our weather pages